TimeEST,TemperatureF,Dew PointF,Humidity,Sea Level PressureIn,VisibilityMPH,Wind Direction,Wind SpeedMPH,Gust SpeedMPH,PrecipitationIn,Events,Conditions,WindDirDegrees,DateUTC
12:51 AM,16.0,3.0,57,30.52,10.0,North,12.7,-,N/A,,Clear,10,2014-03-06 05:51:00
1:51 AM,15.1,3.0,59,30.53,10.0,North,12.7,-,N/A,,Clear,360,2014-03-06 06:51:00
2:51 AM,12.9,-0.0,56,30.55,10.0,North,11.5,-,N/A,,Clear,360,2014-03-06 07:51:00
3:51 AM,12.0,-2.9,51,30.55,10.0,North,17.3,-,N/A,,Clear,360,2014-03-06 08:51:00
4:51 AM,10.0,-5.1,51,30.57,10.0,North,10.4,-,N/A,,Clear,360,2014-03-06 09:51:00
5:51 AM,10.0,-8.0,44,30.60,10.0,North,11.5,-,N/A,,Partly Cloudy,360,2014-03-06 10:51:00
6:51 AM,9.0,-9.9,42,30.61,10.0,North,10.4,-,N/A,,Partly Cloudy,360,2014-03-06 11:51:00
7:51 AM,10.9,-9.9,39,30.64,10.0,NNE,11.5,-,N/A,,Partly Cloudy,20,2014-03-06 12:51:00
8:51 AM,12.9,-9.0,37,30.66,10.0,North,13.8,-,N/A,,Partly Cloudy,360,2014-03-06 13:51:00
9:51 AM,15.1,-8.0,36,30.65,10.0,North,10.4,-,N/A,,Partly Cloudy,360,2014-03-06 14:51:00
10:51 AM,18.0,-7.1,33,30.65,10.0,NNE,6.9,-,N/A,,Partly Cloudy,20,2014-03-06 15:51:00
11:51 AM,21.0,-5.1,32,30.63,10.0,ENE,5.8,-,N/A,,Partly Cloudy,70,2014-03-06 16:51:00
12:51 PM,23.0,-4.0,31,30.61,10.0,NE,4.6,-,N/A,,Partly Cloudy,40,2014-03-06 17:51:00
1:51 PM,26.1,-7.1,23,30.58,10.0,Calm,Calm,-,N/A,,Partly Cloudy,0,2014-03-06 18:51:00
2:51 PM,27.0,-6.0,24,30.56,10.0,Variable,3.5,-,N/A,,Partly Cloudy,0,2014-03-06 19:51:00
3:51 PM,27.0,-5.1,25,30.54,10.0,Calm,Calm,-,N/A,,Partly Cloudy,0,2014-03-06 20:51:00
4:51 PM,28.9,-7.1,21,30.54,10.0,Calm,Calm,-,N/A,,Partly Cloudy,0,2014-03-06 21:51:00
5:51 PM,27.0,-7.1,23,30.55,10.0,Calm,Calm,-,N/A,,Partly Cloudy,0,2014-03-06 22:51:00
6:51 PM,26.1,-4.0,27,30.56,10.0,Calm,Calm,-,N/A,,Scattered Clouds,0,2014-03-06 23:51:00
7:51 PM,19.0,-0.0,43,30.56,10.0,Calm,Calm,-,N/A,,Scattered Clouds,0,2014-03-07 00:51:00
8:51 PM,19.0,-2.0,40,30.56,10.0,SSE,3.5,-,N/A,,Scattered Clouds,160,2014-03-07 01:51:00
9:51 PM,19.9,3.0,48,30.55,10.0,SSE,3.5,-,N/A,,Scattered Clouds,160,2014-03-07 02:51:00
10:51 PM,12.9,1.9,62,30.52,10.0,Calm,Calm,-,N/A,,Scattered Clouds,0,2014-03-07 03:51:00
11:51 PM,10.9,-0.0,61,30.52,10.0,Calm,Calm,-,N/A,,Scattered Clouds,0,2014-03-07 04:51:00